Погода в Плимуте

Монтсеррат     16°42′19″N   62°12′39″W
темп.,
°C
ветер,
м/с
пор.,
м/с
влажн.,
%
обл.,
%
осадки,
мм/ч
давл.,
гПа
погр.,
м
27 ноября, сб
сб2723:00+27в4476100 0.1 1013716
02:00+27в557486 0.1 1012834
05:00+27в55736 0.0 1012805
08:00+27в44725 0.0 1014776
11:00+27в557616 0.0 1014795
14:00+27в44766 0.0 1012682
17:00+27св44765 0.4 1012593
20:00+27всв76776 0.5 1014817
28 ноября, вс
вс2823:00+27всв677716 0.0 1014904
02:00+27в77787 0.1 1012813
05:00+27всв777810 0.1 1012834
08:00+27всв777773 0.1 1014858
11:00+27в667741 0.1 1014834
14:00+27всв667796 0.1 1012733
17:00+27всв777899 0.2 1012650
20:00+27всв7778100 0.2 1014857
29 ноября, пн
пн2923:00+27в7777100 0.4 1014864
02:00+27в677771 0.4 1012801
05:00+27в787814 0.1 1012829
08:00+27вюв997897 0.3 1014889
11:00+28вюв8872100 0.1 10141064
14:00+27в78755 0.1 1012809
17:00+28в78775 0.3 1012828
20:00+28в88745 0.3 1014891
30 ноября, вт
вт3023:00+27в78775 0.0 1014932
02:00+27в787412 0.0 10131046
05:00+27в787863 0.1 1013908
08:00+27в89777 0.2 1015956
11:00+28в910768 0.1 1016971
14:00+28в89785 0.1 1013923
17:00+28в9107827 0.4 1013955
20:00+28в910778 0.4 10151017
1 декабря, ср
ср123:00+27в10117840 0.1 1015942
02:00+27в9107726 0.3 10141002
05:00+27всв9107813 0.1 1014925
08:00+27всв9107837 0.2 1016975
11:00+27всв91071100 0.0 1017989
14:00+27всв89725 0.0 1014926
17:00+27всв9107728 0.0 10141021
20:00+27всв91178100 0.1 1016979